Location: Csohesd
(46.2500°N, 22.6167°E)
Time: 04:42:42
(UTC+00:00)

NOSS 2-3 (D) - Pass Details

Date: 21 October 2021
Orbit: 538 x 1672 km, 63.3° (Epoch: 25 November)

Event Time Altitude Azimuth Distance (km) Brightness Sun altitude
Rises 16:44:49 0° 192° (SSW) 2,677 7.0 -13.2°
Reaches altitude 10° 16:47:03 10° 182° (S) 1,804 6.0 -13.6°
Maximum altitude 16:50:35 32° 118° (ESE) 991 4.1 -14.2°
Enters shadow 16:52:20 23° 75° (ENE) 1,279 4.6 -14.5°
